Skip Page Navigation
NASA JPL Caltech
NASA Logo - Jet Propulsion Laboratory + View the NASA Portal
+ Center for Near-Earth Object Studies
JPL Home Earth Solar System Stars & Galaxies Technology
JPL Solar System Dynamics
BODIES ORBITS EPHEMERIDES TOOLS PHYSICAL DATA DISCOVERY FAQ SITE MAP
IMPORTANT: The SSD Announcement email list is now available. Major changes are coming in the near future, including possible hostname and/or URL changes. To be notified of such changes, subscribe to this email list.

Please visit this page for more details.


JPL Small-Body Database Browser
Search: [ help ]  
249671 (1999 VT132)
Classification: Main-belt Asteroid          SPK-ID: 2249671
Ephemeris | Orbit Diagram | Orbital Elements | Mission Design | Physical Parameters | Discovery Circumstances | Close-Approach Data ]

[ show orbit diagram ]
Orbital Elements at Epoch 2458600.5 (2019-Apr-27.0) TDB
Reference: JPL 10 (heliocentric ecliptic J2000)
 Element Value Uncertainty (1-sigma)   Units 
e .1472809214912725 7.3764e-08  
a 2.36486713719022 1.4775e-08 au
q 2.016567326020417 1.7749e-07 au
i 1.942157669904509 7.2146e-06 deg
node 308.5785696048767 0.00016981 deg
peri 10.72205350102598 0.00017095 deg
M 166.4829770847593 1.9766e-05 deg
tp 2457986.206558069060
(2017-Aug-20.70655807)
7.1689e-05 TDB
period 1328.337845511674
3.64
1.2449e-05
3.408e-08
d
yr
n .2710153905622771 2.5399e-09 deg/d
Q 2.713166948360023 1.6952e-08 au
  Orbit Determination Parameters
   # obs. used (total)      193  
   data-arc span      7061 days (19.33 yr)  
   first obs. used      1999-09-09  
   last obs. used      2019-01-08  
   planetary ephem.      DE431  
   SB-pert. ephem.      SB431-N16  
   condition code      0  
   norm. resid. RMS      .54566  
   source      ORB  
   producer      Otto Matic  
   solution date      2019-Jul-13 06:08:45  

Additional Information
 Earth MOID = 1.00265 au 
 Jupiter MOID = 2.56458 au 
 T_jup = 3.533 
[ show covariance matrix ]

Ephemeris | Orbit Diagram | Orbital Elements | Mission Design | Physical Parameters | Discovery Circumstances | Close-Approach Data ]

Physical Parameter Table
Parameter Symbol Value Units Sigma Reference Notes
absolute magnitude H 17.1   n/a MPO418333  

249671 (1999 VT132)          Discovered 1999-Nov-10 by Spacewatch at Kitt Peak
Reference: 20100923/Numbers.arcLast Updated: 2010-09-27

[ show close-approach data ]
Alternate Designations
 1999 VT132 = 2002 JP90 
Ephemeris | Orbit Diagram | Orbital Elements | Mission Design | Physical Parameters | Discovery Circumstances | Close-Approach Data ]
ABOUT SSD CREDITS/AWARDS PRIVACY/COPYRIGHT GLOSSARY LINKS
FirstGov 2019-Dec-07 19:56 UT
(server date/time)  
NASA Home Page
Site Manager:   Ryan S. Park
Webmaster  Alan B. Chamberlin